Weather History for Andover, NJ

Change the Weather History Date:

Thursday, October 24, 2013

  Actual Average (KFWN) Record (KFWN)
Temperature  
Mean Temperature 42 °F -  
Max Temperature 53 °F 62 °F 83 °F (1963)
Min Temperature 32 °F 33 °F 18 °F (1969)
Degree Days  
Heating Degree Days 23    
Moisture  
Dew Point 28 °F    
Average Humidity 66    
Maximum Humidity 92    
Minimum Humidity 34    
Precipitation  
Precipitation 0.00 in - - ()
Sea Level Pressure  
Sea Level Pressure 29.92 in    
Wind  
Wind Speed 2 mph (SSW)    
Max Wind Speed 10 mph    
Max Gust Speed 22 mph    
Averages and records for this station are not official NWS values.
T = Trace of Precipitation, MM = Missing Value Source: NWS Daily Summary

Daily Weather History Graph

Daily Weather History Graph

Search for Another Location

Airport:

Trip Planner

Search our weather history database for the weather conditions in past years. The results will help you decide how hot, cold, wet, or windy it might be!

Date:

Astronomy

Oct. 24, 2013 Rise Set
Actual Time 7:20 AM EDT 6:04 PM EDT
Civil Twilight 6:52 AM EDT 6:32 PM EDT
Nautical Twilight 6:20 AM EDT 7:05 PM EDT
Astronomical Twilight 5:48 AM EDT 7:36 PM EDT
Moon 10:26 PM EDT (10/24) 12:21 PM EDT (10/24)
Length of Visible Light 11h 40m
Length of Day
10h 44m
Waning Gibbous, 71% of the Moon is Illuminated
Oct 24
Waning Gibbous
Oct 26
Last Quarter
Nov 3
New
Nov 10
First Quarter
Nov 17
Full

Hourly Weather History & Observations

Time (EDT) Temp. Windchill Dew Point Humidity Pressure Visibility Wind Dir Wind Speed Gust Speed Precip Events Conditions
12:54 AM 34.0 °F - 32.0 °F 92% 29.81 in - Calm Calm - N/A   Unknown
1:54 AM 34.0 °F - 30.9 °F 89% 29.82 in - Calm Calm - N/A   Unknown
2:54 AM 32.0 °F - 30.0 °F 92% 29.83 in - Calm Calm - N/A   Unknown
3:54 AM 32.0 °F 28.7 °F 30.0 °F 92% 29.85 in - SSW 3.5 mph - N/A   Unknown
4:54 AM 32.0 °F 28.7 °F 30.0 °F 92% 29.88 in - SSE 3.5 mph - N/A   Unknown
5:54 AM 32.0 °F - 30.0 °F 92% 29.90 in - Calm Calm - N/A   Unknown
6:54 AM 32.0 °F - 30.0 °F 92% 29.91 in - Calm Calm - N/A   Unknown
7:54 AM 32.0 °F - 30.0 °F 92% 29.93 in - Calm Calm - N/A   Unknown
8:54 AM 37.0 °F 34.5 °F 34.0 °F 89% 29.94 in - Variable 3.5 mph - N/A   Unknown
9:54 AM 43.0 °F 40.3 °F 35.1 °F 74% 29.94 in - SSW 4.6 mph - N/A   Unknown
10:54 AM 46.0 °F 43.1 °F 30.9 °F 56% 29.93 in - Variable 5.8 mph - N/A   Unknown
11:54 AM 46.9 °F - 28.9 °F 50% 29.93 in - Variable 6.9 mph - N/A   Unknown
12:54 PM 48.9 °F - 27.0 °F 43% 29.91 in - Variable 4.6 mph 21.9 mph N/A   Unknown
1:54 PM 48.0 °F - 26.1 °F 42% 29.89 in - WSW 10.4 mph 16.1 mph N/A   Unknown
2:54 PM 51.1 °F - 25.0 °F 36% 29.89 in - West 8.1 mph - N/A   Unknown
3:54 PM 52.0 °F - 24.1 °F 34% 29.91 in - Variable 4.6 mph - N/A   Unknown
4:54 PM 50.0 °F - 23.0 °F 35% 29.92 in - Variable 6.9 mph - N/A   Unknown
5:54 PM 46.9 °F - 21.9 °F 37% 29.94 in - Variable 3.5 mph - N/A   Unknown
6:54 PM 45.0 °F 41.8 °F 23.0 °F 42% 29.97 in - Variable 5.8 mph - N/A   Unknown
7:54 PM 42.1 °F 40.2 °F 25.0 °F 51% 29.99 in - South 3.5 mph - N/A   Unknown
8:54 PM 39.0 °F - 27.0 °F 62% 30.01 in - Calm Calm - N/A   Unknown
9:54 PM 39.0 °F - 27.0 °F 62% 30.02 in - Calm Calm - N/A   Unknown
10:54 PM 36.0 °F - 28.0 °F 73% 30.03 in - Calm Calm - N/A   Unknown
11:54 PM 37.0 °F - 27.0 °F 67% 30.03 in - Calm Calm - N/A   Unknown